• In Kazakhstan
  • List of Countries
  • For 7 days
  • Water Temperature
  • Satellite Maps
  • Weather Map
  • News
  • Weather Widgets
  • user-avatar
    Login

    Hourly Weather Kaprun

    Today, 18 July, Thursday

    Time Temperature Precipitation Wind Pressure Humidity
    00:00 +6°C° 0 mm 1 mps 595 mmHg 92%
    01:00 +6°C° 0 mm 1 mps 595 mmHg 92%
    02:00 +6°C° 0 mm 1 mps 595 mmHg 91%
    03:00 +6°C° 0 mm 1 mps 595 mmHg 91%
    04:00 +6°C° 0 mm 1 mps 595 mmHg 90%
    05:00 +7°C° 0 mm 1 mps 596 mmHg 87%
    06:00 +9°C° 0 mm 1 mps 596 mmHg 84%
    07:00 +11°C° 0 mm 1 mps 597 mmHg 79%
    08:00 +12°C° 0.2 mm 1 mps 598 mmHg 74%
    09:00 +12°C° 0.2 mm 1 mps 598 mmHg 69%
    10:00 +13°C° 0.2 mm 1 mps 599 mmHg 64%
    11:00 +14°C° 0.2 mm 2 mps 599 mmHg 61%
    12:00 +14°C° 0.2 mm 2 mps 599 mmHg 59%
    13:00 +15°C° 0.2 mm 2 mps 599 mmHg 56%
    14:00 +14°C° 0.6 mm 2 mps 599 mmHg 60%
    15:00 +14°C° 0.6 mm 1 mps 599 mmHg 63%
    16:00 +14°C° 0.6 mm 1 mps 599 mmHg 66%
    17:00 +13°C° 0.6 mm 1 mps 599 mmHg 74%
    18:00 +12°C° 0.6 mm 1 mps 598 mmHg 81%
    19:00 +11°C° 0.6 mm 1 mps 598 mmHg 88%
    20:00 +9°C° 0.1 mm 1 mps 598 mmHg 89%
    21:00 +8°C° 0.1 mm 1 mps 597 mmHg 91%
    22:00 +6°C° 0.1 mm 1 mps 597 mmHg 92%
    23:00 +6°C° 0 mm 1 mps 597 mmHg 92%

    Tomorrow, 19 July, Friday

    Time Temperature Precipitation Wind Pressure Humidity
    00:00 +6°C° 0 mm 1 mps 597 mmHg 92%
    01:00 +6°C° 0 mm 1 mps 597 mmHg 91%
    02:00 +6°C° 0 mm 1 mps 597 mmHg 90%
    03:00 +6°C° 0 mm 1 mps 597 mmHg 89%
    04:00 +6°C° 0 mm 1 mps 597 mmHg 87%
    05:00 +7°C° 0 mm 1 mps 598 mmHg 83%
    06:00 +8°C° 0 mm 0 mps 599 mmHg 78%
    07:00 +10°C° 0 mm 0 mps 600 mmHg 74%
    08:00 +12°C° 0 mm 0 mps 601 mmHg 66%
    09:00 +14°C° 0 mm 1 mps 601 mmHg 58%
    10:00 +16°C° 0 mm 1 mps 602 mmHg 50%
    11:00 +18°C° 0.1 mm 1 mps 602 mmHg 49%
    12:00 +18°C° 0.1 mm 1 mps 602 mmHg 48%
    13:00 +19°C° 0.1 mm 1 mps 602 mmHg 47%
    14:00 +18°C° 0.4 mm 1 mps 602 mmHg 51%
    15:00 +18°C° 0.4 mm 1 mps 602 mmHg 56%
    16:00 +18°C° 0.4 mm 1 mps 602 mmHg 60%
    17:00 +15°C° 0.8 mm 1 mps 601 mmHg 71%
    18:00 +14°C° 0.8 mm 1 mps 601 mmHg 81%
    19:00 +11°C° 0.8 mm 0 mps 600 mmHg 92%
    20:00 +11°C° 0.2 mm 1 mps 600 mmHg 92%
    21:00 +9°C° 0.2 mm 1 mps 599 mmHg 92%
    22:00 +8°C° 0.2 mm 1 mps 599 mmHg 93%
    23:00 +8°C° 0 mm 1 mps 599 mmHg 93%

    Day after tomorrow, 20 July, Saturday

    Time Temperature Precipitation Wind Pressure Humidity
    00:00 +8°C° 0 mm 1 mps 599 mmHg 92%
    01:00 +7°C° 0 mm 1 mps 599 mmHg 92%
    02:00 +7°C° 0 mm 1 mps 599 mmHg 92%
    03:00 +7°C° 0 mm 1 mps 599 mmHg 91%
    04:00 +7°C° 0 mm 1 mps 599 mmHg 91%
    05:00 +9°C° 0 mm 1 mps 600 mmHg 87%
    06:00 +11°C° 0 mm 1 mps 601 mmHg 83%
    07:00 +13°C° 0 mm 1 mps 602 mmHg 80%
    08:00 +15°C° 0 mm 1 mps 602 mmHg 71%
    09:00 +18°C° 0 mm 1 mps 603 mmHg 62%
    10:00 +20°C° 0 mm 1 mps 604 mmHg 52%
    11:00 +20°C° 0.2 mm 1 mps 604 mmHg 52%
    12:00 +21°C° 0.2 mm 1 mps 604 mmHg 52%
    13:00 +21°C° 0.2 mm 1 mps 604 mmHg 52%
    14:00 +20°C° 0.8 mm 1 mps 604 mmHg 56%
    15:00 +20°C° 0.8 mm 1 mps 604 mmHg 60%
    16:00 +19°C° 0.8 mm 1 mps 603 mmHg 64%
    17:00 +18°C° 1 mm 1 mps 603 mmHg 72%
    18:00 +15°C° 1 mm 1 mps 603 mmHg 80%
    19:00 +14°C° 1 mm 1 mps 602 mmHg 88%
    20:00 +13°C° 0.4 mm 1 mps 602 mmHg 88%
    21:00 +11°C° 0.4 mm 1 mps 602 mmHg 87%
    22:00 +10°C° 0.4 mm 1 mps 601 mmHg 87%
    23:00 +10°C° 0 mm 1 mps 601 mmHg 86%

    21 July, Sunday

    Time Temperature Precipitation Wind Pressure Humidity
    00:00 +10°C° 0 mm 1 mps 601 mmHg 84%
    01:00 +10°C° 0 mm 1 mps 601 mmHg 83%
    02:00 +9°C° 0 mm 1 mps 601 mmHg 81%
    03:00 +9°C° 0 mm 1 mps 601 mmHg 79%
    04:00 +9°C° 0 mm 1 mps 601 mmHg 78%
    05:00 +11°C° 0 mm 1 mps 602 mmHg 73%
    06:00 +12°C° 0 mm 0 mps 603 mmHg 67%
    07:00 +15°C° 0 mm 0 mps 605 mmHg 62%
    08:00 +16°C° 0 mm 0 mps 605 mmHg 58%
    09:00 +19°C° 0 mm 1 mps 606 mmHg 54%
    10:00 +20°C° 0 mm 1 mps 607 mmHg 49%
    11:00 +21°C° 0.4 mm 1 mps 607 mmHg 50%
    12:00 +20°C° 0.4 mm 2 mps 607 mmHg 51%
    13:00 +20°C° 0.4 mm 2 mps 607 mmHg 52%
    14:00 +19°C° 1.1 mm 2 mps 606 mmHg 62%
    15:00 +18°C° 1.1 mm 2 mps 606 mmHg 72%
    16:00 +17°C° 1.1 mm 2 mps 605 mmHg 81%
    17:00 +16°C° 1 mm 1 mps 605 mmHg 85%
    18:00 +15°C° 1 mm 1 mps 605 mmHg 88%
    19:00 +13°C° 1 mm 0 mps 605 mmHg 91%
    20:00 +13°C° 0.1 mm 1 mps 605 mmHg 91%
    21:00 +11°C° 0.1 mm 1 mps 604 mmHg 91%
    22:00 +10°C° 0.1 mm 1 mps 604 mmHg 91%
    23:00 +10°C° 0 mm 1 mps 604 mmHg 90%

    22 July, Monday

    Time Temperature Precipitation Wind Pressure Humidity
    00:00 +9°C° 0 mm 1 mps 604 mmHg 89%
    01:00 +9°C° 0 mm 1 mps 603 mmHg 87%
    02:00 +9°C° 0 mm 1 mps 603 mmHg 86%
    03:00 +9°C° 0 mm 1 mps 603 mmHg 85%
    04:00 +9°C° 0 mm 1 mps 603 mmHg 83%
    05:00 +11°C° 0 mm 1 mps 604 mmHg 78%
    06:00 +13°C° 0 mm 1 mps 605 mmHg 73%
    07:00 +14°C° 0 mm 0 mps 606 mmHg 68%
    08:00 +18°C° 0 mm 1 mps 607 mmHg 62%
    09:00 +19°C° 0 mm 1 mps 608 mmHg 57%
    10:00 +21°C° 0 mm 1 mps 608 mmHg 51%
    11:00 +22°C° 0 mm 1 mps 608 mmHg 48%
    12:00 +21°C° 0 mm 2 mps 609 mmHg 45%
    13:00 +23°C° 0 mm 2 mps 609 mmHg 42%
    14:00 +21°C° 0.1 mm 2 mps 608 mmHg 48%
    15:00 +21°C° 0.1 mm 2 mps 608 mmHg 54%
    16:00 +20°C° 0.1 mm 2 mps 607 mmHg 59%
    17:00 +19°C° 0.3 mm 2 mps 607 mmHg 69%
    18:00 +18°C° 0.3 mm 1 mps 606 mmHg 79%
    19:00 +16°C° 0.3 mm 1 mps 606 mmHg 89%
    20:00 +14°C° 0 mm 1 mps 605 mmHg 90%
    21:00 +13°C° 0 mm 1 mps 605 mmHg 91%
    22:00 +11°C° 0 mm 1 mps 604 mmHg 93%
    23:00 +11°C° 0 mm 1 mps 604 mmHg 91%

    23 July, Tuesday

    Time Temperature Precipitation Wind Pressure Humidity
    00:00 +10°C° 0 mm 1 mps 604 mmHg 90%
    01:00 +10°C° 0 mm 1 mps 603 mmHg 89%
    02:00 +10°C° 0 mm 1 mps 603 mmHg 87%
    03:00 +9°C° 0 mm 1 mps 603 mmHg 86%
    04:00 +9°C° 0 mm 1 mps 603 mmHg 85%
    05:00 +11°C° 0 mm 1 mps 603 mmHg 81%
    06:00 +13°C° 0 mm 1 mps 604 mmHg 76%
    07:00 +15°C° 0 mm 0 mps 605 mmHg 72%
    08:00 +18°C° 0 mm 1 mps 606 mmHg 63%
    09:00 +20°C° 0 mm 1 mps 607 mmHg 53%
    10:00 +22°C° 0 mm 1 mps 607 mmHg 43%
    11:00 +23°C° 0 mm 1 mps 607 mmHg 41%
    12:00 +24°C° 0 mm 1 mps 607 mmHg 38%
    13:00 +24°C° 0 mm 1 mps 608 mmHg 36%
    14:00 +24°C° 0 mm 2 mps 607 mmHg 37%
    15:00 +24°C° 0 mm 2 mps 607 mmHg 39%
    16:00 +24°C° 0 mm 2 mps 606 mmHg 41%
    17:00 +21°C° 0 mm 2 mps 606 mmHg 53%
    18:00 +20°C° 0 mm 1 mps 605 mmHg 66%
    19:00 +18°C° 0 mm 1 mps 604 mmHg 79%
    20:00 +16°C° 0 mm 1 mps 603 mmHg 82%
    21:00 +14°C° 0 mm 1 mps 603 mmHg 86%
    22:00 +12°C° 0 mm 1 mps 602 mmHg 90%
    23:00 +12°C° 0 mm 1 mps 602 mmHg 89%
    Show more